Location: Eimen
(51.8766°N, 9.7806°E)
Time: 11:24:51
(UTC+00:00)

Cosmos 2237 Rocket - Pass Details

Date: 23 May 2024
Orbit: 834 x 850 km, 71.0° (Epoch: 23 June)

Event Time Altitude Azimuth Distance (km) Brightness Sun altitude
Rises 02:10:47 0° 330° (NNW) 3,427 5.6 -8.2°
Reaches altitude 10° 02:13:31 10° 340° (NNW) 2,487 5.1 -8.0°
Maximum altitude 02:18:36 32° 43° (NE) 1,429 4.4 -7.4°
Drops below altitude 10° 02:23:38 10° 106° (ESE) 2,469 5.0 -6.9°
Sets 02:26:21 0° 116° (ESE) 3,399 5.6 -6.6°
